FW8355 Weather Reports


Display with metric or nautical units.
time (UTC)temp
F
wind
direction
speed
MPH
gust
MPH
rain 1hr
in
rain 24hr
in
rain mn
in
humidity
%
barometer
mb
20260506062017 62 0.0 0.0 0.00 0.00 0.00 74 1012.5
20260506061017 61 0.0 0.0 0.00 0.00 0.00 75 1012.4
20260506051057 61 0.0 0.0 0.00 0.00 0.00 75 1011.8
20260506045017 60 0.0 0.0 0.00 0.00 0.00 76 1011.5
20260506044016 59 0.0 0.0 0.00 0.00 0.00 77 1011.6
20260506043017 59 0.0 0.0 0.00 0.00 0.00 76 1011.6
20260506042016 59 0.0 0.0 0.00 0.00 0.00 76 1011.7
20260506041016 59 0.0 0.0 0.00 0.00 0.00 75 1011.7
20260506040016 58 0.0 0.0 0.00 0.00 0.00 75 1011.7
20260506035036 58 0.0 0.0 0.00 0.00 0.00 77 1011.7
20260506034016 58 0.0 0.0 0.00 0.00 0.00 75 1011.6
20260506033017 58 0.0 0.0 0.00 0.00 0.00 73 1011.6
20260506032016 58 0.0 0.0 0.00 0.00 0.00 73 1011.8
20260506031017 58 0.0 0.0 0.00 0.00 0.00 73 1011.7
20260506030016 57 0.0 0.0 0.00 0.00 0.00 73 1011.8
20260506025016 58 0.0 0.0 0.00 0.00 0.00 71 1011.9
20260506024017 59 0.0 0.0 0.00 0.00 0.00 68 1011.8
20260506023016 59 0.0 0.0 0.00 0.00 0.00 66 1011.9
20260506022016 59 0.0 0.0 0.00 0.00 0.00 65 1012.0
20260506021036 59 0.0 0.0 0.00 0.00 0.00 69 1012.1
20260506020036 59 0.0 0.0 0.00 0.00 0.00 69 1012.2
20260506015016 59 0.0 0.0 0.00 0.00 0.00 71 1012.2
20260506014036 59 0.0 0.0 0.00 0.00 0.00 71 1012.1
20260506013016 59 0.0 0.0 0.00 0.00 0.00 72 1012.1
20260506012016 59 0.0 0.0 0.00 0.00 0.00 70 1012.1
20260506011056 59 0.0 0.0 0.00 0.00 0.00 74 1012.3
20260506010016 59 0.0 0.0 0.00 0.00 0.00 73 1012.5
20260506005017 59 0.0 0.0 0.00 0.00 0.00 72 1012.5
20260506004017 59 0.0 0.0 0.00 0.00 0.00 71 1012.7
20260506003016 59 0.0 0.0 0.00 0.00 0.00 71 1012.7
20260506002016 59 0.0 0.0 0.00 0.00 0.00 71 1012.8
20260506001036 59 0.0 0.0 0.00 0.00 0.00 71 1012.8
20260506000016 59 0.0 0.0 0.00 0.00 0.00 72 1012.9
20260505235016 59 0.0 0.0 0.00 0.00 0.00 72 1013.1
20260505234056 59 0.0 0.0 0.00 0.00 0.00 72 1013.1
20260505233016 59 0.0 0.0 0.00 0.00 0.00 72 1013.2
20260505232016 58 0.0 0.0 0.00 0.00 0.00 72 1013.1
20260505231016 59 0.0 0.0 0.00 0.00 0.00 71 1013.4
20260505230016 58 0.0 0.0 0.00 0.00 0.00 72 1013.3
20260505225016 58 0.0 0.0 0.00 0.00 0.00 72 1013.4
20260505224036 58 0.0 0.0 0.00 0.00 0.00 72 1013.4
20260505223016 58 0.0 0.0 0.00 0.00 0.00 72 1013.5
20260505222016 58 0.0 0.0 0.00 0.00 0.00 72 1013.6
20260505221016 58 0.0 0.0 0.00 0.00 0.00 72 1013.7
20260505220016 58 0.0 0.0 0.00 0.00 0.00 72 1013.7
20260505215016 58 0.0 0.0 0.00 0.00 0.00 73 1013.6
20260505214016 58 0.0 0.0 0.00 0.00 0.00 73 1013.6
20260505213016 58 0.0 0.0 0.00 0.00 0.00 73 1013.7
20260505212037 58 0.0 0.0 0.00 0.00 0.00 72 1013.7
20260505211016 59 0.0 0.0 0.00 0.00 0.00 71 1013.8
20260505210018 59 0.0 0.0 0.00 0.00 0.00 70 1013.9
20260505205016 60 0.0 0.0 0.00 0.00 0.00 69 1013.9
20260505204016 60 0.0 0.0 0.00 0.00 0.00 69 1013.9
20260505203036 60 0.0 0.0 0.00 0.00 0.00 69 1013.9
20260505202016 60 0.0 0.0 0.00 0.00 0.00 69 1013.8
20260505201016 60 0.0 0.0 0.00 0.00 0.00 67 1013.9
20260505200016 60 0.0 0.0 0.00 0.00 0.00 67 1013.9
20260505195016 60 0.0 0.0 0.00 0.00 0.00 67 1013.9
20260505194016 61 0.0 0.0 0.00 0.00 0.00 66 1013.8
20260505193016 61 0.0 0.0 0.00 0.00 0.00 65 1013.7
20260505192016 62 0.0 0.0 0.00 0.00 0.00 65 1013.7
20260505191016 62 0.0 0.0 0.00 0.00 0.00 64 1013.6
20260505190016 62 0.0 0.0 0.00 0.00 0.00 63 1013.7
20260505185016 62 293 1.0 2.0 0.00 0.00 0.00 64 1013.7
20260505184016 63 0.0 0.0 0.00 0.00 0.00 61 1013.5
20260505183036 63 0.0 0.0 0.00 0.00 0.00 60 1013.4
20260505182016 63 0.0 1.0 0.00 0.00 0.00 58 1013.4
20260505181016 64 0.0 0.0 0.00 0.00 0.00 57 1013.3
20260505180016 64 0.0 0.0 0.00 0.00 0.00 55 1013.3
20260505175016 64 0.0 0.0 0.00 0.00 0.00 54 1013.4
20260505174016 65 0.0 0.0 0.00 0.00 0.00 54 1013.4
20260505173016 65 0.0 0.0 0.00 0.00 0.00 52 1013.5
20260505172016 65 0.0 0.0 0.00 0.00 0.00 51 1013.5
20260505171016 65 203 1.0 3.0 0.00 0.00 0.00 50 1013.5
20260505170016 65 203 2.0 4.0 0.00 0.00 0.00 50 1013.5
20260505165016 65 203 4.0 6.0 0.00 0.00 0.00 49 1013.6
20260505164016 66 203 2.0 5.0 0.00 0.00 0.00 48 1013.5
20260505163036 67 203 2.0 5.0 0.00 0.00 0.00 48 1013.5
20260505162016 68 203 4.0 8.0 0.00 0.00 0.00 47 1013.6
20260505161036 68 248 1.0 4.0 0.00 0.00 0.00 47 1013.7
20260505153036 68 293 2.0 6.0 0.00 0.00 0.00 46 1014.0
20260505152016 68 293 2.0 5.0 0.00 0.00 0.00 47 1014.1
20260505151016 68 293 3.0 7.0 0.00 0.00 0.00 48 1014.1
20260505125017 71 203 3.0 7.0 0.00 0.00 0.00 44 1014.4
20260505124015 71 225 5.0 12.0 0.00 0.00 0.00 43 1014.5
20260505123017 71 225 3.0 8.0 0.00 0.00 0.00 43 1014.6
20260505122035 71 203 4.0 12.0 0.00 0.00 0.00 45 1014.6
20260505121017 72 203 5.0 9.0 0.00 0.00 0.00 43 1014.8
20260505120018 72 225 3.0 9.0 0.00 0.00 0.00 43 1014.8
20260505115017 71 203 5.0 9.0 0.00 0.00 0.00 44 1014.8
20260505114017 71 248 3.0 7.0 0.00 0.00 0.00 43 1014.9
20260505113057 71 270 4.0 10.0 0.00 0.00 0.00 42 1015.0
20260505112017 71 225 3.0 7.0 0.00 0.00 0.00 42 1015.0
20260505111037 71 248 2.0 8.0 0.00 0.00 0.00 44 1015.0
20260505102037 70 203 3.0 8.0 0.00 0.00 0.00 44 1015.1
20260505101017 70 203 3.0 7.0 0.00 0.00 0.00 43 1015.1
20260505100017 70 203 4.0 9.0 0.00 0.00 0.00 41 1015.2
20260505095017 70 225 2.0 6.0 0.00 0.00 0.00 43 1015.2
20260505094017 69 203 1.0 6.0 0.00 0.00 0.00 46 1015.3
20260505093037 68 135 2.0 4.0 0.00 0.00 0.00 55 1015.1
20260505092017 67 113 2.0 5.0 0.00 0.00 0.00 58 1015.2
20260505091017 66 113 2.0 5.0 0.00 0.00 0.00 59 1015.2
20260505090017 66 158 2.0 5.0 0.00 0.00 0.00 61 1015.2
20260505085017 65 113 2.0 4.0 0.00 0.00 0.00 61 1015.2
20260505084017 65 203 1.0 3.0 0.00 0.00 0.00 61 1015.1
20260505083017 65 203 1.0 4.0 0.00 0.00 0.00 63 1015.2
20260505082017 64 203 1.0 3.0 0.00 0.00 0.00 64 1015.2
20260505081017 63 113 2.0 4.0 0.00 0.00 0.00 65 1015.1
20260505080037 63 0.0 1.0 0.00 0.00 0.00 64 1015.1
20260505075017 62 158 1.0 4.0 0.00 0.00 0.00 65 1015.1
20260505074017 63 0.0 0.0 0.00 0.00 0.00 67 1015.0
20260505073017 62 0.0 0.0 0.00 0.00 0.00 66 1015.1
20260505072017 61 0.0 0.0 0.00 0.00 0.00 67 1015.0
20260505071017 60 0.0 0.0 0.00 0.00 0.00 71 1015.0
20260505070019 60 0.0 0.0 0.00 0.00 0.00 72 1015.0
20260505065017 60 0.0 0.0 0.00 0.00 0.00 73 1015.2